This demonstration page uses our WeatherBlox Daily Observations layout. Learn more.

Left ArrowRight Arrow

Hourly Observations for November 22, 2016

Temp ( °F °C ) Dew Point ( °F °C ) Humidity (%) Winds ( mph kmh ) Pressure ( in mb ) Visibility ( mi km ) Precip ( " mm )
12:15 am 00:15 Clear 39 3.8 35 1.5 85 85 ESE 13 20 29.80 1009 10 16 N/A
12:35 am 00:35 Clear 39 4 35 1.4 83 83 ESE 12 19 29.77 1008 10 16 N/A
12:55 am 00:55 Clear 40 4.3 35 1.7 83 83 ESE 12 19 29.77 1008 10 16 N/A
1:15 am 01:15 Clear 40 4.5 35 1.5 81 81 ESE 10 17 29.77 1008 10 16 N/A
1:35 am 01:35 Clear 40 4.3 35 1.5 82 82 E 9 15 29.77 1008 10 16 N/A
1:55 am 01:55 Clear 39 4.1 35 1.4 83 83 E 8 13 29.74 1007 10 16 N/A
2:15 am 02:15 Clear 39 4 34 1.1 82 82 E 8 13 29.77 1008 10 16 N/A
2:35 am 02:35 Clear 37 2.8 33 0.6 86 86 E 7 11 29.80 1009 10 16 N/A
2:55 am 02:55 Clear 36 2.2 33 0.5 89 89 NE 8 13 29.80 1009 10 16 N/A
3:15 am 03:15 Clear 35 1.8 33 0.4 91 91 NE 7 11 29.77 1008 10 16 N/A
3:35 am 03:35 Clear 35 1.6 33 0.5 93 93 NE 8 13 29.77 1008 10 16 N/A
3:55 am 03:55 Mostly Cloudy 37 2.5 35 1.5 93 93 ENE 10 17 29.77 1008 10 16 N/A
4:15 am 04:15 Mostly Cloudy 37 2.8 35 1.5 91 91 E 12 19 29.77 1008 10 16 N/A
4:35 am 04:35 Mostly Cloudy 37 3 35 1.6 91 91 E 10 17 29.77 1008 10 16 N/A
4:55 am 04:55 Partly Cloudy 37 3 35 1.6 91 91 E 12 19 29.77 1008 10 16 N/A
5:15 am 05:15 Clear 37 3 35 1.7 91 91 E 10 17 29.77 1008 10 16 N/A
5:35 am 05:35 Clear 36 2.4 34 1.1 91 91 ENE 8 13 29.77 1008 10 16 N/A
5:55 am 05:55 Partly Cloudy 36 2.2 34 1.2 93 93 ENE 10 17 29.77 1008 10 16 N/A
6:15 am 06:15 Mostly Cloudy 37 2.6 35 1.8 95 95 NE 13 20 29.74 1007 10 16 N/A
6:35 am 06:35 Mostly Cloudy 37 2.8 36 2 95 95 ENE 13 20 29.77 1008 10 16 N/A
6:55 am 06:55 Mostly Cloudy 37 2.9 36 2.1 95 95 ENE 9 15 29.77 1008 10 16 N/A
7:15 am 07:15 Mostly Cloudy 37 3 36 2.2 95 95 NE 9 15 29.77 1008 7 11 N/A
7:35 am 07:35 Cloudy 38 3.2 37 2.5 95 95 NE 8 13 29.74 1007 7 11 N/A
7:55 am 07:55 Cloudy with Nearby Thunderstorms 38 3.5 37 2.8 95 95 NE 10 17 29.77 1008 5 8 N/A
8:15 am 08:15 Cloudy with Light Rain 39 3.7 37 3 95 95 NE 10 17 29.74 1007 3 5 N/A
8:35 am 08:35 Cloudy with Light Rain 39 3.9 38 3.2 95 95 NE 9 15 29.77 1008 3 4 N/A
8:55 am 08:55 Cloudy with Rain 39 4.1 38 3.5 96 96 NE 10 17 29.74 1007 2 3 0.05 1.27
9:15 am 09:15 Cloudy with Mist and Fog 40 4.5 39 4 97 97 NE 9 15 29.74 1007 3 4 0.03 0.76
9:35 am 09:35 Cloudy with Mist and Fog 41 5.2 40 4.6 96 96 NE 10 17 29.74 1007 2 3 0.03 0.76
9:55 am 09:55 Cloudy with Mist and Fog 42 5.6 41 5.1 97 97 NNE 9 15 29.77 1008 1 1 0.03 0.76
10:15 am 10:15 Cloudy with Fog 42 5.7 41 5.2 97 97 N 8 13 29.77 1008 1 1 N/A
10:35 am 10:35 Cloudy with Fog 42 5.5 41 5 97 97 N 7 11 29.77 1008 0 0 N/A
10:55 am 10:55 Cloudy with Fog 42 5.6 41 5.1 97 97 N 10 17 29.77 1008 0 0 N/A
11:15 am 11:15 Cloudy with Mist and Fog 41 5 40 4.5 97 97 N 12 19 29.77 1008 1 1 N/A
11:35 am 11:35 Cloudy with Fog 41 4.8 40 4.3 97 97 N 14 22 29.77 1008 1 1 N/A
11:55 am 11:55 Cloudy with Mist and Fog 41 5 40 4.5 97 97 N 13 20 29.77 1008 1 1 N/A
12:15 pm 12:15 Cloudy with Mist and Fog 41 5 40 4.5 97 97 N 15 24 29.77 1008 1 2 N/A
12:35 pm 12:35 Cloudy with Mist and Fog 41 4.9 40 4.4 97 97 N 13 20 29.77 1008 2 3 N/A
12:55 pm 12:55 Cloudy with Mist and Fog 41 4.9 40 4.4 97 97 N 17 28 29.77 1008 3 4 N/A
1:15 pm 13:15 Cloudy with Mist and Fog 40 4.5 39 4 97 97 N 14 22 29.77 1008 2 3 N/A
1:35 pm 13:35 Cloudy with Mist and Fog 40 4.5 39 4 97 97 N 15 24 29.80 1009 3 5 N/A
1:55 pm 13:55 Cloudy with Mist and Fog 40 4.5 39 4 97 97 N 17 28 29.80 1009 2 2 N/A
2:15 pm 14:15 Cloudy with Light Rain 39 4.1 38 3.5 96 96 N 14 22 29.83 1010 2 3 N/A
2:35 pm 14:35 Cloudy with Drizzle 39 4 38 3.4 96 96 N 17 28 29.83 1010 3 4 N/A
2:55 pm 14:55 Cloudy with Drizzle 39 4 38 3.5 97 97 N 16 26 29.83 1010 3 4 0.01 0.25
3:15 pm 15:15 Cloudy with Drizzle 39 4 38 3.5 97 97 N 13 20 29.83 1010 3 4 N/A
3:35 pm 15:35 Cloudy with Drizzle 39 4 38 3.5 97 97 N 16 26 29.83 1010 3 4 0.01 0.25
3:55 pm 15:55 Cloudy with Drizzle 39 4.1 38 3.5 96 96 N 17 28 29.83 1010 2 3 0.01 0.25
4:15 pm 16:15 Cloudy with Mist and Fog 39 4 38 3.3 95 95 N 14 22 29.88 1012 5 8 N/A
4:35 pm 16:35 Cloudy 39 4 38 3.1 94 94 N 16 26 29.88 1012 10 16 N/A
4:55 pm 16:55 Cloudy 39 3.7 37 2.5 92 92 N 17 28 29.91 1013 10 16 N/A
5:15 pm 17:15 Cloudy 39 3.7 37 2.5 92 92 N 18 30 29.91 1013 10 16 N/A
5:35 pm 17:35 Cloudy 38 3.6 36 2.3 91 91 N 20 31 29.94 1014 10 16 N/A
5:55 pm 17:55 Cloudy with Light Rain 38 3.6 36 2.3 91 91 N 15 24 29.94 1014 10 16 N/A
6:15 pm 18:15 Cloudy with Drizzle 38 3.6 37 2.5 93 93 N 14 22 29.94 1014 10 16 N/A
6:35 pm 18:35 Cloudy with Drizzle 38 3.6 37 2.5 93 93 N 17 28 29.97 1015 10 16 N/A
6:55 pm 18:55 Cloudy 38 3.6 37 2.5 93 93 N 15 24 29.97 1015 10 16 N/A
7:15 pm 19:15 Cloudy with Light Rain 38 3.6 37 2.5 93 93 N 15 24 29.97 1015 7 11 N/A
7:35 pm 19:35 Cloudy with Light Rain 39 3.7 37 2.7 93 93 NNW 12 19 30.00 1016 7 11 0.01 0.25
7:55 pm 19:55 Cloudy 39 3.8 37 2.6 92 92 N 14 22 30.00 1016 10 16 0.01 0.25
8:15 pm 20:15 Cloudy 39 3.8 37 2.5 91 91 N 14 22 30.00 1016 10 16 N/A
8:35 pm 20:35 Cloudy 39 3.8 37 2.6 92 92 N 13 20 30.03 1017 7 11 N/A
8:55 pm 20:55 Cloudy 39 4 37 2.7 91 91 N 13 20 30.03 1017 10 16 N/A
9:15 pm 21:15 Cloudy 39 4.1 37 2.7 91 91 NNW 13 20 30.03 1017 10 16 N/A
9:35 pm 21:35 Cloudy 40 4.3 37 2.8 90 90 NNW 12 19 30.03 1017 10 16 N/A
9:55 pm 21:55 Cloudy 40 4.5 37 3 90 90 NNW 12 19 30.03 1017 10 16 N/A
10:15 pm 22:15 Cloudy 40 4.5 37 2.9 89 89 N 13 20 30.06 1018 10 16 N/A
10:35 pm 22:35 Cloudy 40 4.5 37 2.8 89 89 N 14 22 30.03 1017 10 16 N/A
10:55 pm 22:55 Cloudy 40 4.5 37 2.7 88 88 NNW 14 22 30.06 1018 10 16 N/A
11:15 pm 23:15 Cloudy 40 4.4 37 2.7 89 89 N 14 22 30.06 1018 10 16 N/A
11:35 pm 23:35 Cloudy 40 4.3 37 2.6 89 89 NNW 13 20 30.06 1018 10 16 N/A
11:55 pm 23:55 Mostly Cloudy 39 3.8 36 2 88 88 NNW 12 19 30.06 1018 10 16 N/A

Powered by AerisWeather